W1VB-1 Weather Reports


Display with metric or nautical units.
time (UTC)temp
F
wind
direction
speed
MPH
gust
MPH
rain 1hr
in
rain 24hr
in
rain mn
in
humidity
%
barometer
mb
20260508072016 71 0.0 0.0 0.00 0.00 0.00 94 1014.1
20260508071015 71 0.0 0.0 0.00 0.00 0.00 93 1014.2
20260508070015 71 0.0 0.0 0.00 0.00 0.00 93 1014.1
20260508065015 71 0.0 0.0 0.00 0.00 0.00 93 1014.1
20260508064015 71 266 0.0 1.0 0.00 0.00 0.00 93 1014.1
20260508063016 72 0.0 1.0 0.00 0.00 0.00 93 1014.1
20260508062015 72 266 0.0 1.0 0.00 0.00 0.00 93 1014.2
20260508061035 72 266 0.0 1.0 0.00 0.00 0.00 93 1014.3
20260508060035 72 266 0.0 1.0 0.00 0.00 0.00 93 1014.4
20260508055015 72 0.0 0.0 0.00 0.00 0.00 93 1014.5
20260508054515 72 266 0.0 2.0 0.00 0.00 0.00 93 1014.5
20260508053515 72 265 0.0 2.0 0.00 0.00 0.00 93 1014.6
20260508052535 72 225 0.0 1.0 0.00 0.00 0.00 93 1014.6
20260508051555 72 284 0.0 2.0 0.00 0.00 0.00 92 1014.6
20260508050515 72 290 0.0 1.0 0.00 0.00 0.00 92 1014.7
20260508045515 72 285 0.0 1.0 0.00 0.00 0.00 92 1014.8
20260508044515 72 285 0.0 1.0 0.00 0.00 0.00 92 1014.9
20260508043515 72 285 0.0 1.0 0.00 0.00 0.00 92 1014.8
20260508042535 73 285 0.0 1.0 0.00 0.00 0.00 91 1014.9
20260508041515 73 280 0.0 2.0 0.00 0.00 0.00 91 1014.8
20260508040515 73 297 0.0 1.0 0.00 0.00 0.00 91 1014.9
20260508035515 73 297 0.0 1.0 0.00 0.00 0.00 90 1014.8
20260508034516 74 292 0.0 2.0 0.00 0.00 0.00 90 1014.9
20260508033515 74 271 0.0 1.0 0.00 0.00 0.00 90 1014.9
20260508032516 74 272 0.0 2.0 0.00 0.00 0.00 90 1014.9
20260508031515 74 277 0.0 1.0 0.00 0.00 0.00 89 1014.9
20260508030515 74 243 0.0 1.0 0.00 0.00 0.00 89 1014.8
20260508025518 75 257 0.0 2.0 0.00 0.00 0.00 89 1014.8
20260508024537 74 251 0.0 2.0 0.00 0.00 0.00 88 1014.7
20260508023518 74 258 0.0 2.0 0.00 0.00 0.00 88 1014.6
20260508022518 75 278 0.0 2.0 0.00 0.00 0.00 87 1014.6
20260508021517 75 281 0.0 1.0 0.00 0.00 0.00 86 1014.5
20260508020518 76 266 1.0 4.0 0.00 0.00 0.00 86 1014.3
20260508015518 76 291 1.0 5.0 0.00 0.00 0.00 85 1014.4
20260508014518 76 270 1.0 3.0 0.00 0.00 0.00 84 1014.4
20260508013518 77 295 1.0 3.0 0.00 0.00 0.00 83 1014.5
20260508012518 77 275 1.0 2.0 0.00 0.00 0.00 82 1014.5
20260508011518 78 265 0.0 2.0 0.00 0.00 0.00 80 1014.4
20260508010518 78 292 1.0 3.0 0.00 0.00 0.00 78 1014.5
20260508005516 79 252 1.0 3.0 0.00 0.00 0.00 76 1014.5
20260508004558 79 289 1.0 3.0 0.00 0.00 0.00 74 1014.5
20260508003518 80 277 1.0 3.0 0.00 0.00 0.00 72 1014.6
20260508002517 81 275 1.0 3.0 0.00 0.00 0.00 70 1014.5
20260508001518 83 275 1.0 4.0 0.00 0.00 0.00 68 1014.5
20260508000518 84 269 1.0 5.0 0.00 0.00 0.00 64 1014.4
20260507235517 87 273 1.0 5.0 0.00 0.00 0.00 61 1014.3
20260507234517 89 290 1.0 3.0 0.00 0.00 0.00 58 1014.2
20260507233518 90 254 1.0 4.0 0.00 0.00 0.00 56 1014.2
20260507232518 91 255 2.0 5.0 0.00 0.00 0.00 55 1014.2
20260507231517 92 250 2.0 5.0 0.00 0.00 0.00 52 1014.1
20260507230518 93 247 2.0 5.0 0.00 0.00 0.00 50 1014.0
20260507225558 93 247 2.0 6.0 0.00 0.00 0.00 48 1014.0
20260507224518 94 235 2.0 6.0 0.00 0.00 0.00 47 1014.0
20260507223518 94 255 1.0 6.0 0.00 0.00 0.00 46 1013.9
20260507222516 94 293 2.0 6.0 0.00 0.00 0.00 43 1014.0
20260507221518 94 262 2.0 5.0 0.00 0.00 0.00 43 1014.1
20260507220538 94 258 2.0 5.0 0.00 0.00 0.00 41 1014.0
20260507215539 93 285 3.0 7.0 0.00 0.00 0.00 40 1014.0
20260507214518 95 309 4.0 7.0 0.00 0.00 0.00 39 1014.0
20260507213517 95 250 3.0 7.0 0.00 0.00 0.00 39 1014.0
20260507212519 94 252 2.0 8.0 0.00 0.00 0.00 39 1013.9
20260507211518 93 270 2.0 7.0 0.00 0.00 0.00 40 1014.0
20260507210517 95 302 3.0 7.0 0.00 0.00 0.00 38 1014.0
20260507205517 94 277 2.0 6.0 0.00 0.00 0.00 37 1014.1
20260507204538 95 285 3.0 8.0 0.00 0.00 0.00 33 1014.1
20260507203518 95 274 3.0 8.0 0.00 0.00 0.00 37 1014.1
20260507202519 95 250 3.0 9.0 0.00 0.00 0.00 41 1014.1
20260507201518 96 257 2.0 7.0 0.00 0.00 0.00 41 1014.2
20260507200518 95 252 3.0 8.0 0.00 0.00 0.00 40 1014.3
20260507195518 95 257 3.0 8.0 0.00 0.00 0.00 37 1014.4
20260507194518 96 243 3.0 6.0 0.00 0.00 0.00 41 1014.5
20260507193518 95 254 3.0 8.0 0.00 0.00 0.00 39 1014.6
20260507192538 95 260 3.0 8.0 0.00 0.00 0.00 41 1014.7
20260507191518 94 263 3.0 11.0 0.00 0.00 0.00 42 1014.8
20260507190517 94 272 3.0 9.0 0.00 0.00 0.00 39 1015.0
20260507185538 94 288 4.0 9.0 0.00 0.00 0.00 43 1015.0
20260507184538 94 292 3.0 9.0 0.00 0.00 0.00 45 1015.3
20260507183538 95 291 4.0 9.0 0.00 0.00 0.00 45 1015.2
20260507182518 96 258 3.0 8.0 0.00 0.00 0.00 43 1015.4
20260507181518 95 255 3.0 8.0 0.00 0.00 0.00 43 1015.5
20260507180518 95 311 2.0 7.0 0.00 0.00 0.00 46 1015.5
20260507175518 94 294 3.0 5.0 0.00 0.00 0.00 47 1015.6
20260507174518 94 297 3.0 6.0 0.00 0.00 0.00 49 1015.7
20260507173518 95 268 2.0 5.0 0.00 0.00 0.00 51 1015.7
20260507172538 96 240 2.0 6.0 0.00 0.00 0.00 52 1015.7
20260507171518 97 280 1.0 5.0 0.00 0.00 0.00 51 1015.8
20260507170538 98 234 1.0 5.0 0.00 0.00 0.00 48 1015.9
20260507165539 98 221 1.0 4.0 0.00 0.00 0.00 49 1016.0
20260507164518 98 285 1.0 6.0 0.00 0.00 0.00 49 1016.0
20260507163618 98 304 1.0 5.0 0.00 0.00 0.00 51 1016.1
20260507162516 97 276 1.0 7.0 0.00 0.00 0.00 54 1016.1
20260507161518 96 228 0.0 6.0 0.00 0.00 0.00 55 1016.3
20260507160538 95 267 1.0 5.0 0.00 0.00 0.00 57 1016.4
20260507155518 94 238 1.0 5.0 0.00 0.00 0.00 58 1016.6
20260507154517 93 193 1.0 3.0 0.00 0.00 0.00 59 1016.7
20260507153519 93 236 1.0 6.0 0.00 0.00 0.00 60 1016.8
20260507152518 94 220 1.0 5.0 0.00 0.00 0.00 60 1016.9
20260507151517 93 232 1.0 4.0 0.00 0.00 0.00 61 1016.9
20260507150518 93 251 1.0 5.0 0.00 0.00 0.00 63 1016.9
20260507145518 93 212 1.0 3.0 0.00 0.00 0.00 65 1016.9
20260507144518 92 230 2.0 5.0 0.00 0.00 0.00 66 1016.9
20260507143517 91 234 1.0 5.0 0.00 0.00 0.00 67 1016.9
20260507142538 91 223 1.0 5.0 0.00 0.00 0.00 70 1016.9
20260507141538 90 225 1.0 7.0 0.00 0.00 0.00 71 1016.9
20260507140517 90 223 1.0 4.0 0.00 0.00 0.00 70 1017.0
20260507135518 90 212 1.0 2.0 0.00 0.00 0.00 71 1017.0
20260507135018 89 263 0.0 2.0 0.00 0.00 0.00 72 1017.0
20260507134018 88 61 0.0 2.0 0.00 0.00 0.00 74 1017.0
20260507133018 87 223 0.0 2.0 0.00 0.00 0.00 77 1016.9
20260507132018 85 79 0.0 2.0 0.00 0.00 0.00 78 1017.0
20260507131018 84 86 0.0 2.0 0.00 0.00 0.00 80 1017.0
20260507130017 83 96 1.0 3.0 0.00 0.00 0.00 82 1016.8
20260507125018 82 197 0.0 2.0 0.00 0.00 0.00 85 1016.9
20260507124018 81 118 0.0 1.0 0.00 0.00 0.00 88 1016.9
20260507123017 79 0.0 1.0 0.00 0.00 0.00 90 1017.0
20260507122038 77 92 0.0 1.0 0.00 0.00 0.00 92 1017.1
20260507121018 76 92 0.0 1.0 0.00 0.00 0.00 93 1016.9
20260507120017 75 0.0 0.0 0.00 0.00 0.00 94 1016.8
20260507115018 73 0.0 0.0 0.00 0.00 0.00 94 1016.7
20260507114018 71 0.0 0.0 0.00 0.00 0.00 93 1016.6
20260507113038 70 0.0 0.0 0.00 0.00 0.00 93 1016.4
20260507112018 69 0.0 0.0 0.00 0.00 0.00 93 1016.3
20260507111018 69 0.0 0.0 0.00 0.00 0.00 92 1016.1
20260507110038 69 0.0 0.0 0.00 0.00 0.00 92 1015.9
20260507105018 69 0.0 0.0 0.00 0.00 0.00 92 1015.7
20260507104018 69 0.0 1.0 0.00 0.00 0.00 92 1015.6
20260507103018 69 0.0 0.0 0.00 0.00 0.00 92 1015.6
20260507102018 69 0.0 0.0 0.00 0.00 0.00 92 1015.3
20260507101018 69 0.0 0.0 0.00 0.00 0.00 92 1015.1
20260507100017 69 94 0.0 1.0 0.00 0.00 0.00 92 1015.1
20260507095038 69 0.0 0.0 0.00 0.00 0.00 92 1015.0
20260507094018 69 0.0 1.0 0.00 0.00 0.00 92 1014.9
20260507093016 69 0.0 0.0 0.00 0.00 0.00 91 1014.9
20260507092016 69 0.0 0.0 0.00 0.00 0.00 91 1014.8
20260507091016 69 0.0 0.0 0.00 0.00 0.00 91 1014.8
20260507090015 69 0.0 0.0 0.00 0.00 0.00 91 1014.8
20260507085016 69 0.0 0.0 0.00 0.00 0.00 91 1014.7
20260507084016 69 0.0 0.0 0.00 0.00 0.00 91 1014.8
20260507083015 69 0.0 0.0 0.00 0.00 0.00 91 1015.0
20260507082015 69 0.0 0.0 0.00 0.00 0.00 91 1014.9
20260507081015 69 0.0 0.0 0.00 0.00 0.00 91 1014.9
20260507080016 70 0.0 0.0 0.00 0.00 0.00 91 1015.0
20260507075036 70 0.0 0.0 0.00 0.00 0.00 91 1015.0
20260507074016 70 0.0 0.0 0.00 0.00 0.00 90 1014.9
20260507073036 70 0.0 0.0 0.00 0.00 0.00 90 1015.1